COSMOS 755

导读 | 星芒AI

COSMOS 755 是一颗由苏联于1975年发射的军用侦察卫星,主要用于电子情报收集和监视任务。该卫星属于“宇宙”系列,是苏联空间监视系统的重要组成部分。COSMOS 755 的具体任务细节未公开,但其轨道和运行模式表明其具备广泛的侦察能力。该卫星在轨运行一段时间后失联,最终再入大气层销毁。COSMOS 755 的发射体现了冷战时期苏联在空间侦察领域的技术实力和战略部署。

基本信息
目录编号:
8072
目录名称:
COSMOS 755
国际标识:
1975-074A
轨道中心:
EARTH
卫星名称:
COSMOS 755
卫星全名:
--
卫星状态:
在轨 (已飞行18386 天)
发射日期:
1975-08-14 UTC
国别 :
俄罗斯(独联体) (CIS)
星等 :
--
轨道信息
数据来源 国际轨道数据
星历时间: 2025-12-14T11:50:54+0800
1天前
查看轨道信息
半长轴: 7362.67km
偏心率: 0.0026864
轨道倾角: 82.905°
近地点辐角 301.737°
升交点赤经 222.329°
平近点角 171.519°
近地点: 964.755km
远地点: 1004.315km
周期: 104.788分钟
每日圈数: 13.741995
详细信息
使用方式:
暂无
2D轨道图
3D轨道图
轨道高度分析图
轨道倾角分析图
轨道综合分析图
查看轨道综合分析图